DW0950 Weather Reports


Display with metric or nautical units.
time (UTC)temp
F
wind
direction
speed
MPH
gust
MPH
rain 1hr
in
rain 24hr
in
rain mn
in
humidity
%
barometer
mb
20260503194952 64 225 0.0 2.0 0.00 0.00 0.00 62 1017.5
20260503194009 65 141 0.0 6.0 0.00 0.00 0.00 62 1017.3
20260503193004 65 142 0.0 6.0 0.00 0.00 0.00 61 1017.1
20260503191954 65 163 0.0 4.0 0.00 0.00 0.00 61 1017.1
20260503190929 66 248 1.0 6.0 0.00 0.00 0.00 60 1017.0
20260503185912 65 236 0.0 6.0 0.00 0.00 0.00 60 1016.9
20260503184856 66 204 0.0 5.0 0.00 0.00 0.00 59 1016.7
20260503183823 66 226 0.0 4.0 0.00 0.00 0.00 57 1016.7
20260503182802 66 194 0.0 5.0 0.00 0.00 0.00 56 1016.6
20260503180708 67 217 1.0 6.0 0.00 0.00 0.00 53 1016.6
20260503175723 68 238 1.0 3.0 0.00 0.00 0.00 52 1016.6
20260503174707 69 205 1.0 3.0 0.00 0.00 0.00 51 1016.6
20260503173647 69 227 1.0 4.0 0.00 0.00 0.00 50 1016.5
20260503172657 70 224 1.0 4.0 0.00 0.00 0.00 48 1016.5
20260503171650 70 221 1.0 4.0 0.00 0.00 0.00 48 1016.4
20260503170648 71 221 0.0 4.0 0.00 0.00 0.00 47 1016.4
20260503150204 76 178 1.0 6.0 0.00 0.00 0.00 36 1017.1
20260503140117 75 212 2.0 7.0 0.00 0.00 0.00 35 1017.9
20260503130849 75 218 1.0 7.0 0.00 0.00 0.00 35 1018.3
20260503110435 70 258 3.0 8.0 0.00 0.00 0.00 49 1019.1
20260503080912 60 139 1.0 5.0 0.00 0.00 0.00 61 1020.7
20260503071623 56 55 1.0 4.0 0.00 0.00 0.00 66 1021.1
20260503070601 56 72 0.0 3.0 0.00 0.00 0.00 67 1021.2
20260503054248 51 56 0.0 0.0 0.00 0.00 0.00 76 1021.0
20260503053215 51 54 0.0 0.0 0.00 0.00 0.00 77 1020.9
20260503052217 51 53 0.0 0.0 0.00 0.00 0.00 78 1020.8
20260503050011 49 51 0.0 0.0 0.00 0.00 0.00 80 1020.7
20260503045011 48 51 0.0 0.0 0.00 0.00 0.00 79 1020.7
20260503042943 48 51 0.0 0.0 0.00 0.00 0.00 79 1020.7
20260503042006 48 51 0.0 0.0 0.00 0.00 0.00 78 1020.6
20260503041031 48 51 0.0 0.0 0.00 0.00 0.00 78 1020.6
20260503040021 49 51 0.0 0.0 0.00 0.00 0.00 78 1020.5
20260503035035 49 51 0.0 0.0 0.00 0.00 0.00 76 1020.4
20260503032919 49 51 0.0 0.0 0.00 0.00 0.00 75 1020.4
20260503031917 49 51 0.0 0.0 0.00 0.00 0.00 75 1020.4
20260503030914 49 51 0.0 0.0 0.00 0.00 0.00 75 1020.4
20260503025922 49 51 0.0 0.0 0.00 0.00 0.00 75 1020.3
20260503024932 49 51 0.0 0.0 0.00 0.00 0.00 74 1020.4
20260503023931 49 51 0.0 0.0 0.00 0.00 0.00 73 1020.4
20260503022939 50 51 0.0 0.0 0.00 0.00 0.00 73 1020.4
20260503014436 50 51 0.0 0.0 0.00 0.00 0.00 71 1020.6
20260503013450 51 51 0.0 0.0 0.00 0.00 0.00 71 1020.5
20260503012510 51 51 0.0 0.0 0.00 0.00 0.00 71 1020.6
20260503011511 51 51 0.0 0.0 0.00 0.00 0.00 72 1020.6
20260503010534 50 51 0.0 0.0 0.00 0.00 0.00 72 1020.7
20260503005504 50 51 0.0 0.0 0.00 0.00 0.00 72 1020.8
20260503004522 50 51 0.0 0.0 0.00 0.00 0.00 72 1020.8
20260503003507 51 51 0.0 0.0 0.00 0.00 0.00 71 1020.9
20260503002452 51 51 0.0 0.0 0.00 0.00 0.00 70 1020.9
20260503001445 51 51 0.0 0.0 0.00 0.00 0.00 70 1020.9
20260503000450 52 51 0.0 0.0 0.00 0.00 0.00 69 1020.9
20260502235500 52 51 0.0 0.0 0.00 0.00 0.00 69 1021.1
20260502233317 52 51 0.0 0.0 0.00 0.00 0.00 67 1021.2
20260502232330 53 51 0.0 0.0 0.00 0.00 0.00 66 1021.3
20260502231333 53 51 0.0 0.0 0.00 0.00 0.00 66 1021.3
20260502230328 53 51 0.0 0.0 0.00 0.00 0.00 65 1021.4
20260502225322 54 51 0.0 0.0 0.00 0.00 0.00 64 1021.4
20260502224327 54 51 0.0 0.0 0.00 0.00 0.00 63 1021.4
20260502223258 55 51 0.0 0.0 0.00 0.00 0.00 61 1021.4
20260502222313 56 51 0.0 0.0 0.00 0.00 0.00 59 1021.2
20260502220139 57 51 0.0 0.0 0.00 0.00 0.00 57 1021.3
20260502215140 57 51 0.0 0.0 0.00 0.00 0.00 57 1021.2
20260502214138 57 51 0.0 0.0 0.00 0.00 0.00 57 1021.2
20260502213202 58 52 0.0 1.0 0.00 0.00 0.00 57 1021.1
20260502212136 58 51 0.0 0.0 0.00 0.00 0.00 56 1021.0
20260502205947 59 50 0.0 0.0 0.00 0.00 0.00 55 1021.0
20260502204914 59 51 0.0 0.0 0.00 0.00 0.00 55 1021.1
20260502203925 59 50 0.0 0.0 0.00 0.00 0.00 54 1021.1
20260502202931 59 50 0.0 0.0 0.00 0.00 0.00 54 1021.1
20260502201921 59 51 0.0 0.0 0.00 0.00 0.00 55 1021.1
20260502200919 59 51 0.0 0.0 0.00 0.00 0.00 55 1021.2